{"data":{"norad_id":55597,"intl_designator":"2023-020AE","name":"STARLINK-5743","alt_names":[],"object_type":"PAYLOAD","status":"ACTIVE","operator":null,"country":"US","launch_date":"2023-02-12","launch_site_code":"AFETR","launch_vehicle":null,"mission":null,"orbit_class":"UNKNOWN","rcs_meters":null,"size_class":null,"mass_kg":null,"dimensions":null,"purposes":["comms"],"wikipedia_slug":null,"has_3d_model":false,"image_url":null,"decayed_at":null,"tle_current":{"epoch":"2026-05-24T20:52:52.452192Z","epoch_age_seconds":89865,"freshness":"FRESH","line1":"1 55597U 23020AE  26144.87005153 -.00000479  00000+0 -78710-5 0  9993","line2":"2 55597  43.0004 283.7136 0001419 269.0059  91.0630 15.27574093180696","mean_motion":15.27574093,"eccentricity":0.0001419,"inclination_deg":43.0004,"raan_deg":283.7136,"arg_perigee_deg":269.0059,"mean_anomaly_deg":91.063,"bstar":-7.871e-6,"rev_number":18069,"period_min":94.267113235207,"perigee_km":482.09317896276,"apogee_km":484.0403885966,"semimajor_km":6861.2037837797,"source":"CELESTRAK","updated_at":"2026-05-25T13:38:17.840375Z"}}}